Olympia, WA
on Thursday, November 8, 2012

Thursday
Previous Day Next Day
Daily Summary
 ActualAverageRecord
Temperature
Mean Temperature °F 45°F  
Max Temperature 50°F 52°F 62°F (1996)
Min Temperature 28°F 38°F 21°F (1977)
Degree Days
Heating Degree Days 26 20  
Month to date heating degree days 116 154  
Since 1 July heating degree days 894 948  
Cooling Degree Days 0 0  
Month to date cooling degree days 0 0  
Year to date cooling degree days 82 106  
Moisture
Dew Point 33°F   
Average Humidity 78    
Maximum Humidity 100    
Minimum Humidity 56    
Precipitation
Precipitation 0.00 in 0.27 in 1.17 in (1973)
Month to date precipitation 1.26 2.02  
Year to date precipitation 41.96 35.93  
Wind
Wind Speed 3 mph   
Max Wind Speed 14 mph   
Max Gust Speed 18 mph   
Visibility 4 miles   
Events Fog   

Key: T is trace of precipitation, MM is missing value
Source: NWS Daily Summary
Time(PST)TemperatureDew PointHumidity Pressure Visibility Wind DirectionWind SpeedGust SpeedPrecipitationEvents Conditions
12:06 AM 35.6°F 35.6°F 100% 29.94 in 1.8 miles Calm Calm - N/A   Overcast
12:08 AM 35.6°F 35.6°F 100% 29.94 in 3.0 miles Calm Calm - N/A   Overcast
12:54 AM 35.1°F 34.0°F 96% 29.94 in 2.5 miles Calm Calm - N/A   Overcast
12:57 AM 35.6°F 33.8°F 93% 29.93 in 1.2 miles Calm Calm - N/A   Overcast
1:09 AM 35.6°F 35.6°F 100% 29.92 in 2.5 miles Calm Calm - N/A   Overcast
1:17 AM 35.6°F 35.6°F 100% 29.92 in 4.0 miles Calm Calm - N/A   Overcast
1:29 AM 35.6°F 35.6°F 100% 29.92 in 4.0 miles Calm Calm - N/A   Overcast
1:44 AM 35.6°F 35.6°F 100% 29.91 in 1.8 miles Calm Calm - N/A   Overcast
1:47 AM 35.6°F 35.6°F 100% 29.91 in 0.8 miles Calm Calm - N/A   Mist
1:54 AM 35.1°F 35.1°F 100% 29.91 in 0.5 miles Calm Calm - N/A Fog Fog
2:11 AM 33.8°F 33.8°F 100% 29.90 in 0.2 miles Calm Calm - N/A Fog Fog
2:54 AM 34.0°F 34.0°F 100% 29.89 in 0.2 miles Calm Calm - N/A Fog Fog
3:54 AM 34.0°F 34.0°F 100% 29.88 in 0.2 miles Calm Calm - N/A Fog Fog
4:54 AM 34.0°F 34.0°F 100% 29.88 in 0.2 miles Calm Calm - N/A Fog Fog
5:11 AM 33.8°F 33.8°F 100% 29.87 in 0.2 miles Calm Calm - N/A Fog Fog
5:23 AM 33.8°F 33.8°F 100% 29.86 in 0.5 miles Calm Calm - N/A Fog Fog
5:54 AM 34.0°F 33.1°F 96% 29.86 in 0.5 miles Calm Calm - N/A Fog Fog
6:05 AM 33.8°F 33.8°F 100% 29.85 in 0.2 miles Calm Calm - N/A Fog Fog
6:14 AM 32.0°F 30.2°F 93% 29.85 in 0.8 miles Calm Calm - N/A   Mist
6:29 AM 32.0°F 32.0°F 100% 29.85 in 0.8 miles Calm Calm - N/A   Mist
6:46 AM 32.0°F 30.2°F 93% 29.85 in 0.2 miles ESE 4.6 mph - N/A Fog Fog
6:54 AM 30.9°F 30.9°F 100% 29.86 in 0.2 miles Calm Calm - N/A Fog Light Freezing Fog
7:00 AM 30.2°F 30.2°F 100% 29.85 in 0.5 miles Calm Calm - N/A Fog Light Freezing Fog
7:09 AM 30.2°F 30.2°F 100% 29.85 in 1.5 miles Calm Calm - N/A   Overcast
7:15 AM 32.0°F 30.2°F 93% 29.85 in 3.0 miles Calm Calm - N/A   Overcast
7:54 AM 33.1°F 33.1°F 100% 29.86 in 2.0 miles Calm Calm - N/A   Overcast
8:54 AM 39.0°F 37.9°F 96% 29.85 in 2.0 miles NNE 5.8 mph - N/A   Overcast
9:54 AM 39.9°F 39.0°F 97% 29.84 in 2.0 miles ENE 5.8 mph - N/A   Mostly Cloudy
9:55 AM 39.2°F 39.2°F 100% 29.84 in 9.0 miles Variable 4.6 mph - N/A   Mostly Cloudy
10:54 AM 43.0°F 39.9°F 89% 29.84 in 10.0 miles East 5.8 mph - N/A   Mostly Cloudy
11:54 AM 46.9°F 39.9°F 77% 29.83 in 10.0 miles NNE 5.8 mph - N/A   Mostly Cloudy
12:52 PM 50.0°F 35.6°F 58% 29.81 in 10.0 miles NE 13.8 mph 18.4 mph N/A   Scattered Clouds
12:54 PM 48.9°F 36.0°F 61% 29.82 in 10.0 miles NE 11.5 mph 18.4 mph N/A   Scattered Clouds
1:54 PM 50.0°F 36.0°F 59% 29.81 in 10.0 miles NE 10.4 mph - N/A   Scattered Clouds
2:54 PM 50.0°F 36.0°F 59% 29.81 in 10.0 miles NE 11.5 mph - N/A   Scattered Clouds
3:54 PM 48.9°F 36.0°F 61% 29.82 in 10.0 miles NE 9.2 mph - N/A   Scattered Clouds
4:54 PM 45.0°F 36.0°F 71% 29.82 in 10.0 miles NE 6.9 mph - N/A   Clear
5:54 PM 44.1°F 35.1°F 71% 29.83 in 10.0 miles Calm Calm - N/A   Clear
6:54 PM 36.0°F 33.1°F 89% 29.84 in 9.0 miles Calm Calm - N/A   Clear
7:54 PM 36.0°F 34.0°F 93% 29.84 in 8.0 miles Calm Calm - N/A   Clear
8:54 PM 34.0°F 33.1°F 96% 29.85 in 7.0 miles Calm Calm - N/A   Clear
9:54 PM 32.0°F 30.9°F 96% 29.85 in 7.0 miles Calm Calm - N/A   Clear
10:05 PM 30.2°F 30.2°F 100% 29.84 in 2.5 miles Calm Calm - N/A   Partly Cloudy
10:11 PM 30.2°F 30.2°F 100% 29.85 in 1.2 miles Calm Calm - N/A   Scattered Clouds
10:34 PM 30.2°F 28.4°F 93% 29.85 in 0.8 miles Calm Calm - N/A   Mist
10:44 PM 28.4°F 28.4°F 100% 29.85 in 1.8 miles Calm Calm - N/A   Partly Cloudy
10:46 PM 30.2°F 28.4°F 93% 29.85 in 3.0 miles Calm Calm - N/A   Partly Cloudy
10:52 PM 30.2°F 30.2°F 100% 29.85 in 1.8 miles Calm Calm - N/A   Partly Cloudy
10:54 PM 30.9°F 30.0°F 96% 29.86 in 1.8 miles Calm Calm - N/A   Partly Cloudy
10:58 PM 30.2°F 30.2°F 100% 29.85 in 3.0 miles Calm Calm - N/A   Clear
11:27 PM 28.4°F 26.6°F 93% 29.85 in 4.0 miles Calm Calm - N/A   Partly Cloudy
11:30 PM 28.4°F 26.6°F 93% 29.85 in 1.5 miles Calm Calm - N/A   Partly Cloudy
11:40 PM 28.4°F 28.4°F 100% 29.85 in 3.0 miles Calm Calm - N/A   Partly Cloudy
11:54 PM 28.9°F 28.0°F 96% 29.86 in 4.0 miles Calm Calm - N/A   Partly Cloudy
Moon Phase
Nov. 08 Nov. 13 Nov. 20 Nov. 28 Dec. 06
Sunrise:07:05 AM (PST) Moon Rise:12:44 AM (PST)11/8
Sunset:04:44 PM (PST) Moon Set:01:48 PM (PST)11/8

Copyright © 2014 The Weather Underground, Inc.